Troy, AL

6:09 PM CDT on April 25, 2018 (GMT -0500)
Troy Municipal

Weather History for KTOI - March, 2012

Change the Weather History Date:

Saturday, March 10, 2012

  Actual Average Record
Temperature  
Mean Temperature 56 °F 55 °F  
Max Temperature 72 °F 68 °F 84 °F (2015)
Min Temperature 39 °F 42 °F 31 °F (2008)
Degree Days  
Heating Degree Days 9 10  
Month to date heating degree days 69 113  
Since 1 July heating degree days 1679 2032  
Cooling Degree Days 0 0  
Month to date cooling degree days 18 0  
Year to date cooling degree days 26 5  
Growing Degree Days 6 (Base 50)    
Moisture  
Dew Point 36 °F    
Average Humidity 59    
Maximum Humidity 92    
Minimum Humidity 26    
Precipitation  
Precipitation 0.00 in 0.18 in 0.90 in (2006)
Month to date precipitation 0.29 1.68  
Year to date precipitation 9.63 10.81  
Snow  
Snow 0.00 in - - ()
Month to date snowfall 0.0  
Since 1 July snowfall 0.0  
Snow Depth 0.00 in    
Sea Level Pressure  
Sea Level Pressure 30.31 in    
Wind  
Wind Speed 6 mph (ENE)    
Max Wind Speed 17 mph    
Max Gust Speed 22 mph    
Visibility 10 miles    
Events      
T = Trace of Precipitation, MM = Missing Value Source: NWS Daily Summary

Daily Weather History Graph

Daily Weather History Graph

Search for Another Location

Airport or City:

Astronomy

Mar. 10, 2012 Rise Set
Actual Time 5:59 AM CST 5:48 PM CST
Civil Twilight 5:35 AM CST 6:13 PM CST
Nautical Twilight 5:07 AM CST 6:41 PM CST
Astronomical Twilight 4:38 AM CST 7:09 PM CST
Moon 8:44 PM CST (3/10) 7:08 AM CST (3/10)
Length of Visible Light 12h 37m
Length of Day
11h 49m
Waning Gibbous, 92% of the Moon is Illuminated
Mar 10
Waning Gibbous
Mar 14
Last Quarter
Mar 22
New
Mar 30
First Quarter
Apr 6
Full

Hourly Weather History & Observations

Time (CST) Temp. Windchill Dew Point Humidity Pressure Visibility Wind Dir Wind Speed Gust Speed Precip Events Conditions
12:53 AM 39.9 °F - 37.0 °F 89% 30.29 in 10.0 mi Calm Calm - N/A   Clear
1:53 AM 44.1 °F 40.8 °F 35.1 °F 71% 30.28 in 10.0 mi NNE 5.8 mph - N/A   Clear
2:53 AM 43.0 °F 41.3 °F 34.0 °F 71% 30.27 in 10.0 mi NNE 3.5 mph - N/A   Clear
3:53 AM 42.1 °F - 34.0 °F 73% 30.28 in 10.0 mi Calm Calm - N/A   Clear
4:53 AM 41.0 °F 39.0 °F 34.0 °F 76% 30.28 in 10.0 mi NNE 3.5 mph - N/A   Clear
5:53 AM 41.0 °F 39.0 °F 33.1 °F 73% 30.30 in 10.0 mi NE 3.5 mph - N/A   Clear
6:53 AM 44.1 °F 42.5 °F 35.1 °F 71% 30.33 in 10.0 mi NNE 3.5 mph - N/A   Clear
7:53 AM 50.0 °F - 34.0 °F 54% 30.35 in 10.0 mi ENE 5.8 mph - N/A   Scattered Clouds
8:53 AM 57.9 °F - 33.1 °F 39% 30.37 in 10.0 mi East 11.5 mph - N/A   Clear
9:53 AM 63.0 °F - 36.0 °F 37% 30.36 in 10.0 mi East 6.9 mph - N/A   Clear
10:53 AM 66.0 °F - 39.0 °F 37% 30.35 in 10.0 mi East 8.1 mph - N/A   Clear
11:53 AM 68.0 °F - 37.9 °F 33% 30.33 in 10.0 mi East 10.4 mph 16.1 mph N/A   Clear
12:53 PM 68.0 °F - 37.9 °F 33% 30.31 in 10.0 mi East 9.2 mph 16.1 mph N/A   Clear
1:53 PM 70.0 °F - 37.9 °F 31% 30.27 in 10.0 mi ESE 10.4 mph 17.3 mph N/A   Clear
2:53 PM 70.0 °F - 37.0 °F 30% 30.26 in 10.0 mi ESE 10.4 mph - N/A   Clear
3:53 PM 72.0 °F - 36.0 °F 27% 30.26 in 10.0 mi Variable 6.9 mph - N/A   Clear
4:53 PM 69.1 °F - 34.0 °F 27% 30.27 in 10.0 mi East 9.2 mph - N/A   Clear
5:53 PM 64.9 °F - 36.0 °F 34% 30.27 in 10.0 mi ENE 3.5 mph - N/A   Clear
6:53 PM 61.0 °F - 37.9 °F 42% 30.29 in 10.0 mi East 3.5 mph - N/A   Clear
7:53 PM 60.1 °F - 36.0 °F 41% 30.31 in 10.0 mi East 4.6 mph - N/A   Clear
8:53 PM 57.9 °F - 35.1 °F 42% 30.33 in 10.0 mi ENE 4.6 mph - N/A   Clear
9:53 PM 57.0 °F - 34.0 °F 42% 30.33 in 10.0 mi ENE 5.8 mph - N/A   Clear
10:53 PM 55.9 °F - 34.0 °F 44% 30.32 in 10.0 mi East 6.9 mph - N/A   Clear
11:53 PM 55.9 °F - 34.0 °F 44% 30.32 in 10.0 mi East 6.9 mph - N/A   Clear